HULIANWAN GAOGUI-03 (H*)

Last updated on Sun Jun 21 2026 00:03:09 GMT+0000 (Coordinated Universal Time)

1 61503U 24181A 26170.87770185 -.00000246 00000+0 00000+0 0 9991 2 61503 0.0459 358.3743 0001138 95.3158 53.2376 1.00270259 6853
UTC large
Height (km)
Speed (km/s)
/
Latitude / Longitude
Inclination (degrees)
Orbital Period (minutes)
Azimuth
Elevation
Range (km)
Doppler Factor

Next 0 passes for location: London (51.5072 / 0.1276)

No passes found over London.
HULIANWAN GAOGUI-03 (H*)